2022/12/22 00:00:00,16.0, 1.1
2022/12/22 00:10:00,16.0, 1.2
2022/12/22 00:20:00,15.9, 1.4
2022/12/22 00:30:00,15.9, 1.1
2022/12/22 00:40:00,16.0, 1.4
2022/12/22 00:50:00,16.0, 1.4
2022/12/22 01:00:00,15.9, 1.2
2022/12/22 01:10:00,15.7, 1.1
2022/12/22 01:20:00,15.6, 0.9
2022/12/22 01:30:00,15.4, 1.5
2022/12/22 01:40:00,15.5, 1.3
2022/12/22 01:50:00,15.6, 0.6
2022/12/22 02:00:00,15.5, 1.1
2022/12/22 02:10:00,15.3, 1.2
2022/12/22 02:20:00,15.2, 1.1
2022/12/22 02:30:00,15.0, 0.9
2022/12/22 02:40:00,14.9, 0.8
2022/12/22 02:50:00,14.7, 0.8
2022/12/22 03:00:00,14.4, 1.0
2022/12/22 03:10:00,14.3, 1.0
2022/12/22 03:20:00,14.0, 0.7
2022/12/22 03:30:00,13.8, 1.1
2022/12/22 03:40:00,13.4, 1.1
2022/12/22 03:50:00,12.5, 1.0
2022/12/22 04:00:00,11.6, 0.8
2022/12/22 04:10:00,10.9, 1.1
2022/12/22 04:20:00,10.3, 0.7
2022/12/22 04:30:00,10.0, 1.2
2022/12/22 04:40:00, 9.8, 1.4
2022/12/22 04:50:00, 9.7, 1.1
2022/12/22 05:00:00, 9.7, 1.0
2022/12/22 05:10:00, 9.7, 1.4
2022/12/22 05:20:00, 9.7, 1.2
2022/12/22 05:30:00, 9.7, 1.1
2022/12/22 05:40:00, 9.7, 1.2
2022/12/22 05:50:00, 9.8, 0.7
2022/12/22 06:00:00, 9.8, 1.0
2022/12/22 06:10:00, 9.7, 1.2
2022/12/22 06:20:00, 9.6, 1.2
2022/12/22 06:30:00, 9.6, 0.9
2022/12/22 06:40:00, 9.6, 1.1
2022/12/22 06:50:00, 9.6, 0.9
2022/12/22 07:00:00, 9.5, 1.1
2022/12/22 07:10:00, 9.5, 1.1
2022/12/22 07:20:00, 9.5, 0.9
2022/12/22 07:30:00, 9.9, 1.2
2022/12/22 07:40:00,10.1, 0.8
2022/12/22 07:50:00,10.3, 1.8
2022/12/22 08:00:00,10.2, 1.0
2022/12/22 08:10:00,10.2, 1.2
2022/12/22 08:20:00,10.3, 1.3
2022/12/22 08:30:00,10.2, 1.1
2022/12/22 08:40:00, 9.8, 1.5
2022/12/22 08:50:00, 9.9, 1.8
2022/12/22 09:00:00, 9.9, 1.3
2022/12/22 09:10:00,10.0, 1.4
2022/12/22 09:20:00,10.0, 1.3
2022/12/22 09:30:00, 9.9, 1.3
2022/12/22 09:40:00, 9.9, 1.7
2022/12/22 09:50:00, 9.9, 1.6
2022/12/22 10:00:00, 9.8, 1.3
2022/12/22 10:10:00, 9.8, 1.4
2022/12/22 10:20:00, 9.9, 1.6
2022/12/22 10:30:00, 9.9, 1.4
2022/12/22 10:40:00, 9.9, 1.5
2022/12/22 10:50:00,10.1, 2.4
2022/12/22 11:00:00,10.2, 2.9
2022/12/22 11:10:00,10.2, 2.4
2022/12/22 11:20:00,10.4, 2.9
2022/12/22 11:30:00,10.3, 2.4
2022/12/22 11:40:00,10.1, 2.3
2022/12/22 11:50:00,10.2, 1.9
2022/12/22 12:00:00,10.2, 1.7
2022/12/22 12:10:00,10.2, 0.7
2022/12/22 12:20:00,10.9, 0.6
2022/12/22 12:30:00,11.4, 0.5
2022/12/22 12:40:00,11.9, 0.7
2022/12/22 12:50:00,12.2, 1.4
2022/12/22 13:00:00,12.1, 1.0
2022/12/22 13:10:00,12.1, 1.3
2022/12/22 13:20:00,11.9, 1.0
2022/12/22 13:30:00,12.1, 2.2
2022/12/22 13:40:00,11.9, 6.9
2022/12/22 13:50:00,11.8, 3.2
2022/12/22 14:00:00,11.4, 1.8
2022/12/22 14:10:00,11.4, 5.5
2022/12/22 14:20:00,11.8, 4.9
2022/12/22 14:30:00,11.4, 2.5
2022/12/22 14:40:00,11.1, 2.4
2022/12/22 14:50:00,11.2, 1.8
2022/12/22 15:00:00,11.2, 0.2
2022/12/22 15:10:00,11.9, 0.7
2022/12/22 15:20:00,12.1, 0.7
2022/12/22 15:30:00,12.1, 0.3
2022/12/22 15:40:00,12.0, 0.2
2022/12/22 15:50:00,12.1,-0.1
2022/12/22 16:00:00,12.8,-0.5
2022/12/22 16:10:00,13.9,-0.5
2022/12/22 16:20:00,16.1,-1.2
2022/12/22 16:30:00,17.1,-0.5
2022/12/22 16:40:00,18.2,-0.5
2022/12/22 16:50:00,19.5,-0.7
2022/12/22 17:00:00,20.1,-0.8
2022/12/22 17:10:00,20.8,-0.9
2022/12/22 17:20:00,22.0,-1.0
2022/12/22 17:30:00,22.7,-1.0
2022/12/22 17:40:00,23.4,-1.1
2022/12/22 17:50:00,24.2,-1.2
2022/12/22 18:00:00,24.8,-0.7
2022/12/22 18:10:00,25.5,-0.9
2022/12/22 18:20:00,26.1,-1.2
2022/12/22 18:30:00,27.0,-1.3
2022/12/22 18:40:00,27.7,-1.1
2022/12/22 18:50:00,28.0,-1.5
2022/12/22 19:00:00,28.6,-1.9
2022/12/22 19:10:00,29.1,-1.6
2022/12/22 19:20:00,29.4,-1.8
2022/12/22 19:30:00,29.8,-1.7
2022/12/22 19:40:00,30.5,-1.7
2022/12/22 19:50:00,30.9,-1.5
2022/12/22 20:00:00,31.1,-1.6
2022/12/22 20:10:00,31.2,-2.1
2022/12/22 20:20:00,31.8,-1.8
2022/12/22 20:30:00,32.1,-2.1
2022/12/22 20:40:00,32.8,-2.0
2022/12/22 20:50:00,33.4,-2.3
2022/12/22 21:00:00,34.0,-2.4
2022/12/22 21:10:00,34.9,-2.4
2022/12/22 21:20:00,35.6,-2.8
2022/12/22 21:30:00,36.2,-2.4
2022/12/22 21:40:00,36.3,-2.6
2022/12/22 21:50:00,36.4,-2.5
2022/12/22 22:00:00,36.6,-2.8
2022/12/22 22:10:00,36.8,-2.7
2022/12/22 22:20:00,37.4,-2.8
2022/12/22 22:30:00,37.8,-3.3
2022/12/22 22:40:00,38.0,-3.0
2022/12/22 22:50:00,38.2,-3.1
2022/12/22 23:00:00,38.1,-3.8
2022/12/22 23:10:00,38.3,-4.1
2022/12/22 23:20:00,39.1,-4.2
2022/12/22 23:30:00,39.8,-4.0
2022/12/22 23:40:00,40.6,-4.0
2022/12/22 23:50:00,40.9,-4.1
